QPF
0.03 0.03 0.02 0.03 0.03 0.03 0.04 0.06 0.08 0.13 0.16 0.19 0.20 0.25 0.33 0.38 0.35 0.34 0.36 0.34 0.31 0.26 0.22 0.20 0.16 0.11 0.10 0.08 0.07 0.07 0.06 0.04 0.04 0.04 0.04 0.03 0.03 0.02 0.02 0.02 0.02 0.02 0.02
0.03 0.02 0.02 0.02 0.03 0.02 0.03 0.04 0.07 0.15 0.21 0.19 0.15 0.14 0.20 0.24 0.24 0.24 0.27 0.31 0.29 0.24 0.19 0.16 0.14 0.10 0.08 0.06 0.05 0.05 0.04 0.04 0.03 0.03 0.03 0.02 0.02 0.01 0.02 0.02 0.01 0.01 0.02
0.02 0.02 0.02 0.02 0.02 0.02 0.02 0.04 0.06 0.07 0.10 0.11 0.11 0.10 0.11 0.11 0.12 0.15 0.18 0.19 0.19 0.18 0.16 0.16 0.15 0.10 0.07 0.06 0.05 0.05 0.04 0.03 0.03 0.03 0.02 0.02 0.01 0.01 0.01 0.01 0.00 0.00 0.00
0.01 0.01 0.01 0.01 0.01 0.01 0.01 0.01 0.02 0.03 0.03 0.05 0.05 0.04 0.04 0.04 0.07 0.11 0.13 0.12 0.13 0.15 0.14 0.11 0.10 0.09 0.08 0.06 0.04 0.04 0.05 0.04 0.03 0.02 0.02 0.01 0.01 0.01 0.00 0.00 0.00 0.00 0.00
0.01 0.00 0.00 0.00 0.00 0.00 0.00 0.00 0.00 0.01 0.01 0.01 0.01 0.02 0.03 0.03 0.04 0.06 0.09 0.10 0.11 0.12 0.11 0.09 0.08 0.07 0.07 0.06 0.04 0.04 0.04 0.04 0.03 0.02 0.02 0.01 0.01 0.00 0.00 0.00 0.00 0.00 0.00
0.00 0.00 0.00 0.00 0.00 0.00 0.00 0.00 0.01 0.01 0.01 0.00 0.00 0.00 0.01 0.02 0.03 0.03 0.05 0.06 0.08 0.10 0.11 0.10 0.09 0.07 0.07 0.06 0.05 0.05 0.05 0.05 0.04 0.03 0.02 0.01 0.01 0.00 0.00 0.00 0.00 0.00 0.00
0.00 0.00 0.00 0.00 0.00 0.00 0.00 0.00 0.01 0.01 0.00 0.00 0.00 0.00 0.00 0.01 0.01 0.02 0.03 0.04 0.04 0.05 0.07 0.08 0.09 0.09 0.11 0.10 0.08 0.06 0.06 0.06 0.06 0.04 0.03 0.02 0.01 0.01 0.00 0.00 0.00 0.00 0.00
0.00 0.00 0.00 0.00 0.00 0.00 0.00 0.00 0.00 0.00 0.00 0.00 0.00 0.00 0.00 0.00 0.00 0.00 0.01 0.01 0.02 0.03 0.04 0.04 0.05 0.06 0.08 0.10 0.11 0.11 0.10 0.10 0.08 0.06 0.05 0.04 0.03 0.02 0.01 0.01 0.01 0.01 0.00
0.00 0.00 0.00 0.00 0.00 0.00 0.00 0.00 0.00 0.00 0.00 0.00 0.00 0.01 0.00 0.00 0.00 0.00 0.00 0.00 0.00 0.01 0.02 0.03 0.03 0.04 0.05 0.06 0.08 0.11 0.13 0.14 0.13 0.12 0.10 0.08 0.06 0.04 0.03 0.02 0.02 0.01 0.01
0.00 0.00 0.00 0.00 0.00 0.00 0.00 0.00 0.00 0.00 0.00 0.00 0.00 0.00 0.00 0.00 0.00 0.00 0.00 0.00 0.00 0.00 0.00 0.01 0.02 0.03 0.04 0.05 0.06 0.08 0.10 0.12 0.14 0.15 0.14 0.12 0.09 0.08 0.05 0.04 0.03 0.03 0.02
0.00 0.00 0.00 0.00 0.00 0.00 0.00 0.00 0.00 0.00 0.00 0.00 0.00 0.00 0.00 0.00 0.00 0.00 0.00 0.00 0.00 0.00 0.00 0.00 0.00 0.01 0.01 0.03 0.04 0.05 0.07 0.10 0.12 0.13 0.13 0.14 0.13 0.11 0.08 0.06 0.05 0.04 0.03
0.00 0.00 0.00 0.00 0.00 0.00 0.00 0.00 0.00 0.00 0.00 0.00 0.00 0.00 0.00 0.00 0.01 0.01 0.01 0.00 0.00 0.00 0.00 0.00 0.00 0.00 0.00 0.01 0.01 0.02 0.04 0.06 0.09 0.12 0.13 0.13 0.13 0.12 0.10 0.08 0.07 0.05 0.05
0.00 0.00 0.00 0.00 0.00 0.00 0.00 0.00 0.00 0.00 0.00 0.00 0.00 0.00 0.00 0.00 0.00 0.00 0.01 0.01 0.00 0.00 0.00 0.00 0.00 0.00 0.00 0.00 0.01 0.01 0.02 0.03 0.05 0.08 0.11 0.13 0.15 0.15 0.14 0.11 0.08 0.06 0.05
0.00 0.00 0.00 0.00 0.00 0.00 0.00 0.00 0.00 0.00 0.00 0.00 0.00 0.00 0.00 0.00 0.00 0.00 0.01 0.01 0.01 0.01 0.01 0.01 0.00 0.00 0.00 0.00 0.00 0.01 0.01 0.02 0.03 0.04 0.07 0.09 0.10 0.12 0.14 0.13 0.11 0.09 0.07
0.00 0.00 0.00 0.00 0.00 0.00 0.00 0.00 0.00 0.00 0.00 0.00 0.00 0.00 0.00 0.00 0.00 0.00 0.01 0.01 0.01 0.01 0.01 0.01 0.01 0.01 0.01 0.00 0.00 0.01 0.01 0.01 0.02 0.03 0.04 0.05 0.07 0.08 0.10 0.11 0.12 0.11 0.09
0.00 0.00 0.00 0.00 0.00 0.00 0.00 0.00 0.00 0.00 0.00 0.00 0.01 0.01 0.01 0.01 0.01 0.01 0.01 0.02 0.02 0.02 0.03 0.03 0.02 0.02 0.01 0.00 0.00 0.00 0.00 0.01 0.01 0.02 0.02 0.02 0.03 0.04 0.05 0.06 0.08 0.10 0.09
0.00 0.00 0.00 0.00 0.00 0.00 0.00 0.00 0.00 0.00 0.01 0.01 0.01 0.01 0.02 0.02 0.02 0.02 0.03 0.03 0.03 0.04 0.04 0.04 0.04 0.04 0.03 0.01 0.00 0.00 0.01 0.01 0.01 0.01 0.02 0.01 0.01 0.02 0.03 0.04 0.04 0.05 0.06
0.00 0.00 0.00 0.00 0.00 0.00 0.00 0.00 0.00 0.01 0.01 0.01 0.02 0.02 0.02 0.03 0.03 0.03 0.04 0.05 0.05 0.05 0.05 0.06 0.05 0.06 0.04 0.02 0.01 0.01 0.01 0.02 0.02 0.02 0.02 0.02 0.01 0.01 0.02 0.03 0.03 0.03 0.04
0.00 0.00 0.00 0.00 0.00 0.00 0.00 0.00 0.00 0.01 0.01 0.02 0.02 0.03 0.03 0.04 0.04 0.05 0.05 0.07 0.08 0.07 0.07 0.07 0.07 0.07 0.06 0.03 0.01 0.01 0.02 0.03 0.03 0.02 0.01 0.01 0.01 0.01 0.01 0.02 0.03 0.03 0.04
0.00 0.00 0.00 0.00 0.00 0.00 0.00 0.01 0.01 0.01 0.02 0.02 0.03 0.03 0.05 0.06 0.05 0.06 0.07 0.07 0.08 0.08 0.07 0.07 0.07 0.07 0.07 0.04 0.02 0.01 0.03 0.03 0.04 0.04 0.03 0.01 0.01 0.01 0.01 0.01 0.03 0.03 0.04
0.00 0.00 0.00 0.00 0.00 0.00 0.00 0.01 0.01 0.02 0.03 0.03 0.04 0.05 0.06 0.07 0.07 0.07 0.08 0.08 0.08 0.10 0.09 0.07 0.07 0.08 0.07 0.06 0.03 0.01 0.02 0.03 0.04 0.04 0.03 0.03 0.01 0.01 0.01 0.01 0.02 0.03 0.03
0.00 0.00 0.00 0.00 0.00 0.00 0.01 0.01 0.02 0.02 0.03 0.04 0.05 0.05 0.06 0.06 0.07 0.09 0.09 0.09 0.10 0.11 0.10 0.09 0.08 0.08 0.08 0.06 0.04 0.01 0.01 0.02 0.04 0.04 0.04 0.04 0.02 0.01 0.01 0.01 0.02 0.02 0.02
0.00 0.00 0.00 0.00 0.00 0.00 0.01 0.02 0.02 0.03 0.04 0.04 0.05 0.06 0.05 0.06 0.08 0.09 0.09 0.10 0.11 0.10 0.09 0.09 0.08 0.08 0.09 0.07 0.03 0.02 0.01 0.00 0.02 0.04 0.03 0.02 0.02 0.02 0.01 0.02 0.03 0.02 0.03
0.00 0.00 0.00 0.00 0.00 0.00 0.01 0.02 0.02 0.03 0.04 0.04 0.05 0.06 0.06 0.06 0.07 0.07 0.09 0.10 0.11 0.11 0.10 0.09 0.08 0.08 0.09 0.08 0.06 0.04 0.02 0.01 0.01 0.01 0.01 0.01 0.01 0.02 0.03 0.03 0.04 0.04 0.04
0.00 0.00 0.00 0.00 0.00 0.00 0.01 0.01 0.02 0.03 0.04 0.04 0.05 0.06 0.06 0.07 0.08 0.08 0.08 0.08 0.09 0.09 0.09 0.10 0.10 0.10 0.09 0.07 0.05 0.05 0.06 0.05 0.04 0.04 0.04 0.03 0.03 0.02 0.04 0.05 0.06 0.06 0.07
0.00 0.00 0.00 0.00 0.00 0.01 0.01 0.01 0.02 0.03 0.04 0.06 0.06 0.06 0.06 0.08 0.09 0.09 0.08 0.05 0.04 0.04 0.03 0.04 0.05 0.06 0.05 0.03 0.02 0.02 0.02 0.02 0.02 0.03 0.04 0.04 0.05 0.06 0.06 0.07 0.09 0.09 0.10
MSLP
1013.31 1013.32 1013.33 1013.32 1013.27 1013.20 1013.10 1012.98 1012.85 1012.70 1012.55 1012.37 1012.16 1011.92 1011.63 1011.32 1010.98 1010.63 1010.28 1009.95 1009.65 1009.38 1009.17 1009.01 1008.91 1008.89 1008.95 1009.09 1009.32 1009.62 1009.97 1010.35 1010.72 1011.04 1011.29 1011.44 1011.49 1011.44 1011.31 1011.13 1010.96 1010.82 1010.75
1013.45 1013.49 1013.50 1013.48 1013.42 1013.31 1013.18 1013.03 1012.88 1012.73 1012.57 1012.39 1012.18 1011.93 1011.63 1011.28 1010.91 1010.52 1010.14 1009.78 1009.46 1009.19 1008.98 1008.83 1008.74 1008.71 1008.74 1008.85 1009.03 1009.27 1009.58 1009.93 1010.29 1010.63 1010.92 1011.12 1011.23 1011.25 1011.17 1011.04 1010.88 1010.74 1010.64
1013.32 1013.39 1013.43 1013.42 1013.35 1013.25 1013.11 1012.97 1012.82 1012.68 1012.54 1012.38 1012.19 1011.94 1011.65 1011.30 1010.91 1010.50 1010.11 1009.75 1009.43 1009.17 1008.97 1008.83 1008.73 1008.68 1008.68 1008.73 1008.83 1009.00 1009.22 1009.50 1009.82 1010.14 1010.44 1010.69 1010.86 1010.95 1010.96 1010.90 1010.80 1010.70 1010.62
1013.02 1013.12 1013.18 1013.19 1013.15 1013.06 1012.94 1012.81 1012.69 1012.58 1012.47 1012.34 1012.18 1011.97 1011.69 1011.36 1010.98 1010.58 1010.20 1009.85 1009.56 1009.32 1009.14 1009.01 1008.91 1008.84 1008.79 1008.77 1008.78 1008.84 1008.96 1009.15 1009.38 1009.65 1009.93 1010.19 1010.41 1010.57 1010.66 1010.69 1010.68 1010.65 1010.63
1012.67 1012.78 1012.86 1012.89 1012.86 1012.79 1012.70 1012.60 1012.50 1012.43 1012.35 1012.27 1012.14 1011.97 1011.73 1011.42 1011.07 1010.71 1010.36 1010.05 1009.79 1009.59 1009.44 1009.33 1009.24 1009.16 1009.07 1008.98 1008.90 1008.86 1008.86 1008.93 1009.07 1009.26 1009.48 1009.73 1009.96 1010.15 1010.31 1010.41 1010.48 1010.53 1010.58
1012.34 1012.45 1012.54 1012.58 1012.56 1012.50 1012.42 1012.33 1012.26 1012.21 1012.17 1012.12 1012.03 1011.89 1011.69 1011.43 1011.12 1010.81 1010.50 1010.24 1010.03 1009.88 1009.77 1009.70 1009.63 1009.55 1009.44 1009.31 1009.17 1009.04 1008.94 1008.90 1008.93 1009.03 1009.18 1009.37 1009.57 1009.76 1009.94 1010.08 1010.21 1010.32 1010.43
1012.10 1012.20 1012.27 1012.30 1012.27 1012.21 1012.12 1012.04 1011.97 1011.93 1011.89 1011.86 1011.80 1011.69 1011.52 1011.30 1011.04 1010.78 1010.53 1010.32 1010.17 1010.07 1010.02 1010.00 1009.97 1009.91 1009.82 1009.68 1009.51 1009.34 1009.18 1009.06 1009.00 1009.00 1009.06 1009.17 1009.31 1009.46 1009.61 1009.75 1009.89 1010.03 1010.19
1011.97 1012.04 1012.08 1012.07 1012.02 1011.92 1011.81 1011.71 1011.62 1011.56 1011.52 1011.48 1011.43 1011.33 1011.19 1011.00 1010.78 1010.56 1010.36 1010.20 1010.11 1010.07 1010.08 1010.11 1010.14 1010.14 1010.09 1009.99 1009.84 1009.67 1009.49 1009.34 1009.23 1009.16 1009.14 1009.16 1009.21 1009.29 1009.37 1009.47 1009.58 1009.71 1009.88
1011.93 1011.95 1011.94 1011.89 1011.79 1011.65 1011.50 1011.35 1011.23 1011.14 1011.07 1011.01 1010.93 1010.83 1010.69 1010.51 1010.32 1010.13 1009.96 1009.85 1009.80 1009.81 1009.88 1009.97 1010.07 1010.14 1010.16 1010.13 1010.05 1009.94 1009.80 1009.66 1009.54 1009.44 1009.36 1009.31 1009.28 1009.26 1009.25 1009.27 1009.32 1009.41 1009.56
1011.93 1011.90 1011.84 1011.73 1011.58 1011.39 1011.19 1010.99 1010.83 1010.69 1010.57 1010.47 1010.36 1010.23 1010.07 1009.89 1009.70 1009.51 1009.37 1009.28 1009.25 1009.30 1009.41 1009.56 1009.72 1009.86 1009.97 1010.04 1010.06 1010.03 1009.98 1009.91 1009.83 1009.74 1009.65 1009.55 1009.46 1009.36 1009.26 1009.19 1009.16 1009.19 1009.30
1011.94 1011.85 1011.74 1011.59 1011.39 1011.15 1010.90 1010.66 1010.44 1010.25 1010.09 1009.93 1009.78 1009.60 1009.41 1009.20 1008.99 1008.80 1008.64 1008.55 1008.54 1008.60 1008.73 1008.91 1009.11 1009.32 1009.51 1009.67 1009.80 1009.89 1009.95 1009.97 1009.97 1009.94 1009.88 1009.79 1009.66 1009.52 1009.36 1009.22 1009.12 1009.08 1009.14
1011.92 1011.80 1011.65 1011.45 1011.21 1010.94 1010.66 1010.38 1010.12 1009.89 1009.67 1009.46 1009.25 1009.03 1008.79 1008.54 1008.29 1008.06 1007.89 1007.78 1007.74 1007.79 1007.92 1008.10 1008.32 1008.57 1008.82 1009.05 1009.27 1009.47 1009.64 1009.78 1009.88 1009.95 1009.95 1009.91 1009.80 1009.65 1009.47 1009.29 1009.15 1009.06 1009.08
1011.89 1011.74 1011.56 1011.33 1011.06 1010.77 1010.47 1010.17 1009.88 1009.61 1009.35 1009.10 1008.83 1008.55 1008.25 1007.95 1007.65 1007.39 1007.17 1007.03 1006.96 1006.97 1007.07 1007.23 1007.44 1007.69 1007.96 1008.24 1008.52 1008.79 1009.06 1009.30 1009.52 1009.68 1009.79 1009.82 1009.78 1009.68 1009.52 1009.35 1009.20 1009.09 1009.08
1011.86 1011.68 1011.47 1011.22 1010.94 1010.64 1010.32 1010.01 1009.71 1009.42 1009.12 1008.82 1008.51 1008.17 1007.82 1007.46 1007.11 1006.80 1006.54 1006.34 1006.23 1006.20 1006.25 1006.37 1006.54 1006.76 1007.01 1007.29 1007.59 1007.91 1008.24 1008.56 1008.87 1009.13 1009.35 1009.48 1009.54 1009.52 1009.44 1009.32 1009.19 1009.10 1009.08
1011.84 1011.64 1011.40 1011.13 1010.84 1010.53 1010.21 1009.90 1009.59 1009.27 1008.95 1008.61 1008.25 1007.86 1007.45 1007.04 1006.64 1006.28 1005.97 1005.73 1005.57 1005.49 1005.48 1005.55 1005.67 1005.83 1006.04 1006.28 1006.57 1006.89 1007.24 1007.61 1007.99 1008.34 1008.65 1008.90 1009.07 1009.16 1009.17 1009.13 1009.07 1009.01 1009.00
1011.84 1011.61 1011.35 1011.05 1010.74 1010.42 1010.09 1009.77 1009.45 1009.13 1008.78 1008.40 1008.00 1007.56 1007.10 1006.63 1006.19 1005.78 1005.43 1005.15 1004.95 1004.82 1004.77 1004.78 1004.84 1004.94 1005.09 1005.29 1005.53 1005.82 1006.17 1006.55 1006.97 1007.38 1007.78 1008.13 1008.41 1008.61 1008.73 1008.78 1008.79 1008.78 1008.80
1011.86 1011.59 1011.29 1010.95 1010.61 1010.27 1009.93 1009.60 1009.27 1008.92 1008.55 1008.14 1007.69 1007.21 1006.70 1006.19 1005.70 1005.25 1004.86 1004.55 1004.32 1004.17 1004.08 1004.05 1004.06 1004.11 1004.21 1004.35 1004.54 1004.80 1005.11 1005.49 1005.92 1006.37 1006.82 1007.25 1007.62 1007.92 1008.13 1008.27 1008.36 1008.40 1008.44
1011.86 1011.55 1011.19 1010.81 1010.43 1010.06 1009.70 1009.35 1009.00 1008.63 1008.23 1007.79 1007.30 1006.77 1006.22 1005.67 1005.14 1004.66 1004.24 1003.91 1003.66 1003.49 1003.38 1003.33 1003.32 1003.35 1003.41 1003.51 1003.67 1003.89 1004.18 1004.54 1004.96 1005.42 1005.90 1006.37 1006.80 1007.17 1007.46 1007.66 1007.80 1007.88 1007.94
1011.81 1011.44 1011.03 1010.60 1010.18 1009.77 1009.38 1009.01 1008.64 1008.25 1007.82 1007.35 1006.83 1006.26 1005.67 1005.08 1004.52 1004.01 1003.57 1003.22 1002.97 1002.79 1002.69 1002.64 1002.63 1002.66 1002.71 1002.81 1002.95 1003.15 1003.42 1003.76 1004.17 1004.63 1005.11 1005.59 1006.05 1006.45 1006.77 1007.02 1007.18 1007.29 1007.35
1011.68 1011.26 1010.79 1010.32 1009.86 1009.42 1009.00 1008.60 1008.21 1007.80 1007.35 1006.86 1006.31 1005.71 1005.09 1004.47 1003.87 1003.34 1002.89 1002.53 1002.27 1002.10 1002.00 1001.97 1001.99 1002.04 1002.12 1002.23 1002.38 1002.59 1002.85 1003.18 1003.58 1004.02 1004.49 1004.96 1005.41 1005.81 1006.14 1006.38 1006.56 1006.66 1006.72
1011.45 1010.98 1010.48 1009.97 1009.48 1009.01 1008.58 1008.17 1007.76 1007.34 1006.88 1006.36 1005.79 1005.17 1004.53 1003.88 1003.26 1002.70 1002.23 1001.87 1001.60 1001.44 1001.37 1001.37 1001.42 1001.51 1001.63 1001.78 1001.96 1002.19 1002.46 1002.79 1003.17 1003.59 1004.04 1004.48 1004.89 1005.26 1005.56 1005.80 1005.95 1006.05 1006.11
1011.13 1010.63 1010.11 1009.58 1009.08 1008.61 1008.17 1007.75 1007.33 1006.90 1006.43 1005.90 1005.31 1004.68 1004.02 1003.35 1002.71 1002.14 1001.66 1001.28 1001.02 1000.87 1000.81 1000.84 1000.93 1001.06 1001.22 1001.42 1001.64 1001.90 1002.19 1002.53 1002.90 1003.29 1003.69 1004.09 1004.46 1004.78 1005.05 1005.24 1005.38 1005.47 1005.52
1010.74 1010.24 1009.71 1009.19 1008.69 1008.23 1007.79 1007.37 1006.95 1006.51 1006.02 1005.48 1004.88 1004.24 1003.56 1002.88 1002.24 1001.66 1001.17 1000.79 1000.53 1000.39 1000.35 1000.40 1000.51 1000.68 1000.88 1001.12 1001.38 1001.66 1001.97 1002.31 1002.66 1003.03 1003.39 1003.74 1004.05 1004.32 1004.54 1004.70 1004.82 1004.90 1004.96
1010.34 1009.84 1009.34 1008.84 1008.35 1007.90 1007.46 1007.04 1006.61 1006.15 1005.64 1005.08 1004.46 1003.81 1003.12 1002.44 1001.80 1001.23 1000.75 1000.38 1000.12 999.99 999.96 1000.02 1000.16 1000.35 1000.57 1000.83 1001.11 1001.41 1001.72 1002.05 1002.39 1002.72 1003.04 1003.34 1003.61 1003.83 1004.00 1004.14 1004.24 1004.32 1004.41
1009.95 1009.48 1009.01 1008.54 1008.08 1007.63 1007.20 1006.76 1006.30 1005.80 1005.25 1004.66 1004.01 1003.34 1002.64 1001.97 1001.34 1000.79 1000.33 999.99 999.76 999.64 999.62 999.70 999.84 1000.03 1000.27 1000.53 1000.81 1001.10 1001.40 1001.71 1002.02 1002.32 1002.60 1002.86 1003.08 1003.27 1003.41 1003.53 1003.63 1003.73 1003.84
1009.61 1009.19 1008.75 1008.31 1007.88 1007.43 1006.98 1006.49 1005.98 1005.42 1004.81 1004.16 1003.47 1002.77 1002.07 1001.41 1000.82 1000.30 999.89 999.58 999.39 999.30 999.31 999.40 999.54 999.73 999.95 1000.19 1000.45 1000.72 1001.00 1001.28 1001.55 1001.82 1002.07 1002.29 1002.48 1002.64 1002.77 1002.88 1002.99 1003.11 1003.26
Thickness
5752 5753 5754 5753 5751 5748 5745 5741 5738 5736 5734 5731 5728 5725 5724 5724 5723 5720 5717 5715 5714 5715 5715 5716 5716 5716 5718 5718 5719 5719 5720 5721 5723 5723 5725 5732 5735 5736 5738 5741 5743 5745 5744
5743 5743 5743 5742 5739 5736 5734 5731 5728 5726 5724 5722 5719 5718 5717 5718 5716 5714 5712 5711 5710 5710 5710 5711 5712 5712 5712 5711 5713 5713 5715 5718 5719 5718 5719 5722 5727 5728 5736 5737 5738 5740 5741
5735 5734 5733 5731 5729 5727 5724 5722 5718 5717 5715 5713 5713 5711 5710 5709 5708 5707 5707 5706 5705 5704 5703 5705 5706 5706 5707 5707 5708 5709 5707 5710 5713 5715 5714 5715 5720 5726 5730 5731 5734 5734 5736
5729 5727 5725 5722 5720 5718 5716 5713 5710 5708 5706 5705 5703 5700 5699 5698 5697 5697 5698 5698 5698 5697 5696 5697 5699 5700 5702 5702 5703 5705 5705 5703 5706 5708 5709 5712 5715 5715 5720 5724 5728 5728 5729
5722 5719 5717 5715 5713 5711 5709 5706 5702 5699 5697 5695 5693 5692 5691 5690 5690 5688 5687 5687 5688 5688 5688 5689 5691 5692 5694 5695 5696 5698 5697 5700 5701 5703 5705 5705 5705 5708 5711 5715 5718 5723 5727
5717 5714 5712 5710 5707 5705 5702 5699 5694 5690 5688 5686 5684 5681 5679 5678 5676 5676 5676 5677 5678 5678 5678 5678 5680 5682 5684 5685 5687 5689 5690 5692 5694 5697 5700 5700 5702 5703 5706 5708 5709 5714 5720
5714 5710 5707 5704 5700 5697 5694 5690 5685 5681 5678 5676 5673 5671 5669 5667 5665 5665 5666 5665 5667 5667 5665 5667 5667 5669 5671 5673 5676 5678 5681 5683 5684 5686 5690 5694 5698 5701 5702 5703 5705 5707 5713
5710 5706 5702 5699 5695 5692 5687 5682 5677 5672 5669 5666 5663 5660 5658 5658 5658 5655 5654 5654 5654 5654 5653 5653 5653 5655 5657 5660 5662 5666 5669 5672 5674 5678 5680 5684 5689 5693 5695 5697 5698 5699 5705
5705 5702 5698 5694 5690 5685 5680 5674 5668 5663 5660 5656 5653 5650 5647 5645 5644 5642 5641 5642 5640 5640 5640 5640 5640 5641 5642 5644 5647 5650 5653 5657 5661 5665 5668 5672 5679 5682 5686 5690 5692 5692 5695
5700 5696 5692 5687 5682 5677 5671 5666 5660 5655 5651 5647 5644 5642 5639 5635 5632 5630 5629 5628 5627 5626 5625 5626 5626 5627 5627 5629 5630 5634 5638 5641 5646 5650 5654 5659 5665 5670 5675 5679 5683 5686 5688
5693 5689 5685 5680 5673 5668 5662 5657 5652 5646 5642 5637 5634 5629 5626 5623 5620 5618 5616 5614 5613 5612 5611 5611 5612 5612 5613 5615 5616 5618 5622 5625 5629 5634 5640 5644 5650 5654 5661 5666 5671 5677 5680
5687 5682 5676 5670 5663 5657 5652 5646 5641 5636 5632 5628 5623 5619 5615 5611 5608 5606 5604 5602 5600 5599 5598 5597 5597 5598 5600 5601 5602 5604 5608 5611 5615 5619 5624 5629 5635 5640 5645 5651 5659 5666 5671
5679 5673 5666 5658 5651 5646 5641 5636 5631 5626 5621 5617 5612 5608 5604 5599 5596 5593 5590 5588 5586 5585 5584 5583 5583 5584 5585 5586 5588 5590 5594 5597 5601 5605 5609 5614 5618 5624 5631 5637 5645 5653 5660
5669 5663 5655 5648 5642 5635 5630 5625 5620 5615 5610 5605 5600 5595 5591 5587 5583 5581 5578 5575 5573 5572 5570 5570 5570 5571 5571 5573 5575 5576 5579 5582 5587 5591 5595 5600 5604 5610 5616 5623 5630 5637 5645
5661 5653 5645 5638 5632 5626 5621 5615 5609 5603 5597 5592 5587 5583 5579 5575 5571 5567 5563 5561 5559 5559 5558 5558 5558 5559 5560 5562 5563 5564 5566 5569 5573 5577 5582 5587 5591 5596 5601 5608 5616 5623 5630
5651 5644 5637 5630 5623 5616 5611 5605 5598 5592 5585 5580 5575 5570 5566 5561 5556 5552 5549 5547 5546 5545 5544 5545 5546 5548 5551 5553 5551 5552 5556 5559 5562 5565 5570 5574 5577 5581 5585 5591 5597 5606 5616
5642 5634 5627 5621 5614 5608 5601 5595 5589 5582 5576 5569 5564 5559 5553 5548 5542 5538 5536 5534 5532 5532 5531 5532 5533 5536 5539 5539 5539 5539 5543 5549 5553 5555 5559 5564 5571 5571 5576 5579 5583 5592 5601
5633 5627 5620 5614 5607 5601 5594 5587 5580 5573 5566 5560 5554 5548 5542 5536 5531 5526 5523 5520 5518 5518 5519 5520 5523 5525 5527 5528 5528 5529 5533 5540 5545 5548 5551 5554 5559 5564 5566 5571 5577 5584 5594
5626 5619 5612 5606 5600 5593 5586 5579 5572 5564 5557 5551 5545 5538 5531 5525 5519 5515 5512 5509 5507 5507 5508 5509 5511 5514 5517 5518 5518 5519 5526 5532 5538 5543 5546 5548 5551 5553 5554 5560 5567 5575 5584
5621 5614 5607 5600 5593 5586 5578 5570 5564 5557 5550 5544 5536 5529 5522 5516 5511 5507 5503 5501 5498 5498 5499 5501 5503 5506 5510 5511 5511 5511 5522 5529 5534 5538 5541 5541 5544 5546 5545 5551 5557 5564 5574
5616 5609 5601 5593 5586 5579 5571 5563 5557 5551 5544 5537 5529 5522 5515 5508 5503 5499 5496 5493 5491 5491 5492 5494 5497 5499 5502 5503 5504 5507 5516 5525 5529 5535 5539 5543 5539 5538 5538 5542 5550 5557 5563
5612 5604 5596 5589 5581 5573 5565 5558 5552 5546 5538 5530 5523 5517 5510 5503 5500 5494 5491 5488 5486 5486 5488 5489 5492 5494 5496 5499 5500 5502 5507 5516 5524 5530 5535 5539 5535 5533 5533 5536 5542 5545 5550
5607 5599 5591 5584 5576 5568 5560 5554 5548 5540 5532 5525 5519 5513 5506 5501 5495 5491 5488 5485 5483 5484 5485 5486 5489 5492 5494 5496 5496 5498 5502 5507 5516 5525 5528 5528 5527 5527 5528 5529 5533 5536 5546
5602 5595 5586 5578 5572 5564 5557 5549 5543 5535 5528 5522 5516 5510 5505 5500 5495 5490 5487 5484 5483 5483 5483 5484 5487 5490 5492 5494 5497 5500 5502 5503 5509 5517 5521 5519 5520 5523 5528 5531 5532 5537 5548
5598 5589 5580 5574 5567 5561 5554 5547 5540 5533 5526 5520 5515 5510 5505 5500 5495 5492 5488 5485 5483 5480 5480 5481 5483 5486 5489 5492 5493 5499 5504 5509 5513 5517 5520 5523 5527 5528 5531 5534 5538 5542 5548
5593 5585 5577 5570 5564 5558 5552 5546 5538 5531 5524 5520 5516 5511 5506 5502 5498 5494 5492 5486 5481 5478 5476 5475 5476 5482 5482 5484 5488 5492 5497 5501 5505 5511 5519 5523 5526 5530 5533 5536 5539 5542 5547